NOAA 16 DEB, 42391

Orbit data source: Space-Track

NOAA 16 DEB, 42391 is space debris in SSO originally from a launch on Thu, 21 Sep 2000 UTC launched from the Air Force Western Test Range (AFWTR). Debris objects in space refer to the collection of defunct objects orbiting the Earth. Examples of debris include non-operational satellites, rocket bodies, and fragments generated from explosions, collisions, or faulty payload assembly.

Loading next visibility...
Identifier
42391, 2000-055SK
Orbit
SSO
Country
Flag of USUS
Related business
Manufacturer
Unknown
Mission
Spacecraft
Bus & Motor
Unknown
Mass
Unknown
Launch date (UTC)
2000-09-21 (25 years ago)
Launch vehicle
Unknown
Launch site
Air Force Western Test Range (AFWTR)
Object type
Payload
Rocket body
Debris
Shape & HBR
Unknown shape, 0.1 m
Radar Cross Section
Small (<0.1 m²)

Expand to show TLE details & history
Last TLE update: 5 days ago

TLE from 5 days ago
0 NOAA 16 DEB
1 42391U 00055SK  25344.65199966  .00153900  00000-0  13028-1 0  9991
2 42391  99.0115 236.9934 0003377 289.0903  70.9949 14.97190593511376
Epoch: 2025-12-10T15:38Z
TLE epoch observation values (Epoch: 2025-12-10T15:38:52.770Z)
Latitude
-0.00002°
Longitude
-77.34573°
Altitude
577.827 km
Speed
7.572 km/s
True Right ascension
15h 47m 58s
True Declination
0° 00' 00"
Sunlit
Object was in daylight at epoch
Visualization orbit readout
Latitude
Unknown
Longitude
Unknown
Altitude
Unknown
Speed
Unknown
Apparent Right ascension
Unknown
Apparent Declination
Unknown
Sunlit
N/A
Visualization observer readout
Local Sidereal Time
22:11:32
Azimuth
Unknown
Elevation
Unknown
Doppler factor
Unknown
Orbital elements
Apogee altitude
575 km
Perigee altitude
570.306 km
Semi-major axis
6,950.79 km
Eccentricity
0.00034
Inclination
99.0115°
RAAN
236.9934°
Arg. of periapsis
289.0903°
True anomaly
71.03149°
Mean anomaly
70.9949°
Eccentric anomaly
71.0132°
Mean motion
3.74535 °/min
Orbital period
96.12 mins
BSTAR
0.013028
Loading maneuver chart data...
Computing Atmospheric mass density...
Loading historical data...
Loading historical data...
Loading historical data...
Loading historical data...
Loading historical data...
Loading historical data...
Loading historical data...

Documentation

Showing up to 5 results
|